Edwards AFB North Base, CA

10:14 PM PDT on August 20, 2019 (GMT -0700)
Edwards AFB North Base

Weather History for K9L2 - May, 2019

Change the Weather History Date:

Saturday, May 25, 2019

  Actual Average (KEDW) Record (KEDW)
Temperature  
Mean Temperature 64 °F -  
Max Temperature 78 °F 85 °F 96 °F (2001)
Min Temperature 52 °F 55 °F 44 °F (2008)
Growing Degree Days 14 (Base 50)    
Moisture  
Dew Point 41 °F    
Average Humidity 43    
Maximum Humidity 77    
Minimum Humidity 23    
Precipitation  
Precipitation 0.00 in - - ()
Sea Level Pressure  
Sea Level Pressure 29.77 in    
Wind  
Wind Speed 10 mph ()    
Max Wind Speed 22 mph    
Max Gust Speed 38 mph    
Visibility 8.6 miles    
Events      
Averages and records for this station are not official NWS values.
T = Trace of Precipitation, MM = Missing Value Source: Averaged Metar Reports

Daily Weather History Graph

Daily Weather History Graph

Search for Another Location

Airport or City:

Astronomy

May. 25, 2019 Rise Set
Actual Time 5:41 AM PDT 7:55 PM PDT
Civil Twilight 5:12 AM PDT 8:24 PM PDT
Nautical Twilight 4:37 AM PDT 8:59 PM PDT
Astronomical Twilight 3:59 AM PDT 9:37 PM PDT
Moon 1:01 AM PDT (5/25) 11:42 AM PDT (5/25)
Length of Visible Light 15h 11m
Length of Day
14h 13m
Waning Gibbous, 58% of the Moon is Illuminated
May 25
Waning Gibbous
May 26
Last Quarter
Jun 3
New
Jun 9
First Quarter
Jun 17
Full

Hourly Weather History & Observations

Time (PDT) Temp. Dew Point Humidity Pressure Visibility Wind Dir Wind Speed Gust Speed Precip Events Conditions
12:58 AM 60.8 °F 47.8 °F 62% 29.82 in 9.0 mi WSW 9.2 mph - N/A   Clear
1:58 AM 57.7 °F 47.3 °F 68% 29.82 in 9.0 mi SSE 9.2 mph - N/A   Partly Cloudy
2:58 AM 58.3 °F 46.8 °F 66% 29.81 in 10.0 mi Calm Calm - N/A   Clear
3:58 AM 54.3 °F 46.4 °F 75% 29.80 in 10.0 mi South 9.2 mph - N/A   Clear
4:58 AM 52.7 °F 45.7 °F 77% 29.79 in 10.0 mi South 3.5 mph - N/A   Clear
5:58 AM 52.2 °F 45.1 °F 77% 29.80 in 9.0 mi SSE 5.8 mph - N/A   Clear
6:58 AM 54.7 °F 46.2 °F 73% 29.80 in 9.0 mi SSE 8.1 mph - N/A   Clear
7:58 AM 60.8 °F 48.2 °F 63% 29.81 in 8.0 mi South 10.4 mph - N/A   Clear
8:58 AM 66.4 °F 47.1 °F 50% 29.81 in 7.0 mi South 8.1 mph - N/A   Clear
9:58 AM 70.2 °F 43.3 °F 38% 29.79 in 8.0 mi SSW 11.5 mph - N/A   Clear
10:43 AM 73.4 °F 37.4 °F 27% 29.79 in 9.0 mi SW 11.5 mph 23.0 mph N/A   Clear
10:58 AM 72.7 °F 39.2 °F 30% 29.79 in 9.0 mi SSW 17.3 mph 24.2 mph N/A   Clear
11:58 AM 75.0 °F 36.9 °F 25% 29.78 in 9.0 mi SW 16.1 mph 23.0 mph N/A   Clear
12:05 PM 75.2 °F 37.4 °F 25% 29.78 in 9.0 mi South 16.1 mph 23.0 mph N/A   Partly Cloudy
12:18 PM 75.2 °F 37.4 °F 25% 29.78 in 9.0 mi SW 12.7 mph 25.3 mph N/A   Clear
12:24 PM 75.2 °F 37.4 °F 25% 29.77 in 9.0 mi South 15.0 mph - N/A   Partly Cloudy
12:58 PM 76.5 °F 36.5 °F 24% 29.77 in 8.0 mi South 16.1 mph 23.0 mph N/A   Partly Cloudy
1:12 PM 77.0 °F 37.4 °F 24% 29.77 in 8.0 mi SW 13.8 mph 25.3 mph N/A   Partly Cloudy
1:14 PM 77.0 °F 37.4 °F 24% 29.75 in 8.0 mi South 16.1 mph 25.3 mph N/A   Clear
1:16 PM 77.0 °F 37.4 °F 24% 29.75 in 8.0 mi SW 13.8 mph 25.3 mph N/A   Clear
1:33 PM 77.0 °F 37.4 °F 24% 29.76 in 8.0 mi SW 19.6 mph 38.0 mph N/A   Partly Cloudy
1:58 PM 76.8 °F 36.9 °F 24% 29.75 in 8.0 mi South 16.1 mph 23.0 mph N/A   Clear
2:58 PM 77.7 °F 37.4 °F 23% 29.74 in 9.0 mi SSW 17.3 mph 25.3 mph N/A   Clear
3:58 PM 75.7 °F 38.3 °F 26% 29.74 in 9.0 mi SSW 16.1 mph 26.5 mph N/A   Clear
4:58 PM 75.4 °F 39.4 °F 27% 29.73 in 9.0 mi SW 19.6 mph 25.3 mph N/A   Clear
5:58 PM 71.4 °F 41.7 °F 34% 29.75 in 7.0 mi SW 20.7 mph 26.5 mph N/A   Clear
6:58 PM 68.2 °F 42.6 °F 40% 29.75 in 7.0 mi SSW 21.9 mph 27.6 mph N/A   Clear
7:58 PM 64.0 °F 39.9 °F 41% 29.75 in 8.0 mi SSW 16.1 mph - N/A   Clear
8:58 PM 61.3 °F 42.1 °F 49% 29.75 in 9.0 mi SSW 15.0 mph - N/A   Clear
9:58 PM 59.2 °F 44.1 °F 57% 29.76 in 9.0 mi SSW 15.0 mph - N/A   Clear
10:58 PM 57.7 °F 44.4 °F 61% 29.74 in 9.0 mi South 16.1 mph - N/A   Clear
11:58 PM 55.9 °F 43.2 °F 62% 29.73 in 9.0 mi SSW 16.1 mph - N/A   Clear